WA2GUG Weather Reports


time (UTC)temp
F
wind
direction
speed
knots
gust
knots
rain 1hr
in
rain 24hr
in
rain mn
in
humidity
%
barometer
mb
20260904220205 90 84 0.0 0.0 0.00 0.00 0.00 99 1007.2
20260904215705 90 358 0.0 0.0 0.00 0.00 0.00 99 1008.0
20260904215205 91 0 0.0 0.0 0.00 0.00 0.00 99 1007.2
20260904214705 90 270 0.0 3.5 0.00 0.00 0.00 99 1008.0
20260904214205 90 353 0.0 3.5 0.00 0.00 0.00 99 1007.2
20260904213705 91 349 0.0 2.6 0.00 0.00 0.00 99 1007.1
20260904213205 92 223 0.0 2.6 0.00 0.00 0.00 99 1007.2
20260904212705 94 271 0.0 1.7 0.00 0.00 0.00 99 1008.0
20260904212205 96 78 0.0 1.7 0.00 0.00 0.00 99 1007.2
20260904211705 97 44 0.0 0.0 0.00 0.00 0.00 99 1007.2
20260904211205 97 0 0.0 0.0 0.00 0.00 0.00 99 1007.2
20260904210705 97 9 0.0 0.0 0.00 0.00 0.00 99 1007.2
20260904210205 97 43 0.0 0.0 0.00 0.00 0.00 99 1008.0
20260904205705 97 56 0.0 0.0 0.00 0.00 0.00 99 1008.0
20260904205205 97 38 0.0 0.0 0.00 0.00 0.00 99 1008.0
20260904204705 97 55 0.0 0.0 0.00 0.00 0.00 99 1008.0
20260904204205 96 76 0.0 0.0 0.00 0.00 0.00 99 1008.0
20260904203705 96 13 0.0 0.0 0.00 0.00 0.00 99 1007.2
20260904203205 96 5 0.0 0.0 0.00 0.00 0.00 99 1007.2
20260904202705 0 220 0.0 0.0 0.00 0.00 0.00 99 1008.0
20260904202205 0 358 0.0 0.9 0.00 0.00 0.00 99 1008.0
20260904201705 0 39 0.0 1.7 0.00 0.00 0.00 99 1007.2
20260904201205 0 14 0.0 1.7 0.00 0.00 0.00 99 1008.0
20260904200705 0 15 0.0 0.0 0.00 0.00 0.00 99 1007.2
20260904200205 0 356 0.0 0.0 0.00 0.00 0.00 99 1008.0
20260904195705 0 39 0.0 0.9 0.00 0.00 0.00 99 1008.0
20260904195205 0 7 0.0 0.9 0.00 0.00 0.00 99 1007.2
20260904194705 0 42 0.0 0.0 0.00 0.00 0.00 99 1008.0
20260904194205 0 32 0.0 0.9 0.00 0.00 0.00 99 1008.0
20260904193705 0 6 0.0 0.9 0.00 0.00 0.00 99 1007.2
20260904193205 0 13 0.0 1.7 0.00 0.00 0.00 99 1008.0
20260904192705 0 47 0.0 1.7 0.00 0.00 0.00 99 1008.0
20260904192205 0 53 0.0 0.9 0.00 0.00 0.00 99 1008.0
20260904191705 0 181 0.0 0.0 0.00 0.00 0.00 99 1007.2
20260904191205 0 7 0.0 0.9 0.00 0.00 0.00 99 1008.0
20260904190705 0 42 0.0 0.9 0.00 0.00 0.00 99 1008.0
20260904190205 0 181 0.0 0.0 0.00 0.00 0.00 99 1008.0
20260904185705 0 8 0.0 0.9 0.00 0.00 0.00 99 1008.0
20260904185205 0 191 0.0 0.9 0.00 0.00 0.00 99 1008.0
20260904184705 0 36 0.0 0.0 0.00 0.00 0.00 99 1008.0
20260904184205 0 90 0.0 0.0 0.00 0.00 0.00 99 1008.0
20260904183705 0 70 0.0 1.7 0.00 0.00 0.00 99 1008.0
20260904183205 97 90 0.0 1.7 0.00 0.00 0.00 99 1008.0
20260904182705 97 2 0.0 0.0 0.00 0.00 0.00 99 1008.0
20260904182205 98 312 0.0 0.0 0.00 0.00 0.00 99 1008.0
20260904181705 98 0 0.0 0.0 0.00 0.00 0.00 99 1008.0
20260904181205 98 72 0.0 0.0 0.00 0.00 0.00 99 1008.0
20260904180705 97 127 0.0 0.0 0.00 0.00 0.00 99 1008.0
20260904180205 96 325 0.0 4.3 0.00 0.00 0.00 99 1008.0
20260904175705 96 40 0.0 5.2 0.00 0.00 0.00 99 1008.0
20260904175205 96 184 0.9 5.2 0.00 0.00 0.00 99 1008.0
20260904174705 96 138 0.9 2.6 0.00 0.00 0.00 99 1008.0
20260904174205 95 36 0.0 1.7 0.00 0.00 0.00 99 1008.0
20260904173705 93 92 0.0 1.7 0.00 0.00 0.00 99 1008.0
20260904173205 92 351 0.0 1.7 0.00 0.00 0.00 99 1008.0
20260904172705 92 36 0.0 0.0 0.00 0.00 0.00 99 1008.0
20260904172205 91 41 0.0 0.0 0.00 0.00 0.00 99 1008.0
20260904171705 91 43 0.0 3.5 0.00 0.00 0.00 99 1008.0
20260904171205 93 92 0.0 3.5 0.00 0.00 0.00 99 1008.0
20260904170704 93 37 0.0 0.0 0.00 0.00 0.00 99 1008.0
20260904170205 93 175 0.0 0.0 0.00 0.00 0.00 99 1008.0
20260904165704 92 220 0.0 5.2 0.00 0.00 0.00 99 1008.0
20260904165205 92 5 0.0 5.2 0.00 0.00 0.00 99 1008.0
20260904164704 90 84 0.9 2.6 0.00 0.00 0.00 99 1008.0
20260904164204 88 38 0.0 0.0 0.00 0.00 0.00 99 1008.0
20260904163704 88 181 0.0 0.0 0.00 0.00 0.00 99 1008.0
20260904163204 91 188 0.0 0.0 0.00 0.00 0.00 99 1008.0
20260904162704 91 43 0.0 0.0 0.00 0.00 0.00 99 1008.0
20260904162204 89 34 0.0 0.0 0.00 0.00 0.00 99 1008.0
20260904161705 89 91 0.0 0.0 0.00 0.00 0.00 99 1008.0
20260904161204 89 35 0.0 0.9 0.00 0.00 0.00 99 1008.1
20260904160704 89 76 0.0 0.9 0.00 0.00 0.00 99 1008.1
20260904160204 88 309 0.0 0.0 0.00 0.00 0.00 99 1008.2
20260904155704 86 179 0.0 0.0 0.00 0.00 0.00 99 1009.0
20260904155204 86 39 0.0 0.0 0.00 0.00 0.00 99 1009.0
20260904154704 86 40 0.0 0.9 0.00 0.00 0.00 99 1009.0
20260904154204 87 48 0.0 0.9 0.00 0.00 0.00 99 1009.0
20260904153704 89 80 0.0 0.0 0.00 0.00 0.00 99 1008.2
20260904153204 91 179 0.0 0.0 0.00 0.00 0.00 99 1008.2
20260904152704 89 86 0.0 0.0 0.00 0.00 0.00 99 1008.2
20260904152204 87 45 0.0 0.0 0.00 0.00 0.00 99 1008.2
20260904151705 85 85 0.0 0.0 0.00 0.00 0.00 99 1009.0
20260904151204 86 41 0.0 0.0 0.00 0.00 0.00 99 1009.0
20260904150704 90 47 0.0 0.0 0.00 0.00 0.00 99 1009.0
20260904150204 90 183 0.0 0.9 0.00 0.00 0.00 99 1009.0
20260904145704 88 41 0.0 0.9 0.00 0.00 0.00 99 1009.0
20260904145204 88 82 0.0 0.0 0.00 0.00 0.00 99 1009.0
20260904144704 88 88 0.0 0.0 0.00 0.00 0.00 99 1009.0
20260904144204 88 313 0.0 0.0 0.00 0.00 0.00 99 1009.0
20260904143704 87 46 0.0 0.0 0.00 0.00 0.00 99 1009.0
20260904143204 86 2 0.0 0.9 0.00 0.00 0.00 99 1009.0
20260904142704 86 134 0.0 0.9 0.00 0.00 0.00 99 1009.0
20260904142205 86 4 0.0 0.0 0.00 0.00 0.00 99 1009.0
20260904141704 85 318 0.0 0.0 0.00 0.00 0.00 99 1009.0
20260904141204 85 51 0.0 0.0 0.00 0.00 0.00 99 1009.0
20260904140704 84 50 0.0 1.7 0.00 0.00 0.00 99 1009.0
20260904140204 84 78 0.0 1.7 0.00 0.00 0.00 99 1009.0
20260904135704 85 49 0.0 0.0 0.00 0.00 0.00 99 1009.0
20260904135204 84 141 0.0 0.0 0.00 0.00 0.00 99 1009.0
20260904134704 84 46 0.0 0.9 0.00 0.00 0.00 99 1009.0
20260904134204 84 315 0.0 0.9 0.00 0.00 0.00 99 1009.0
20260904133704 83 22 0.0 5.2 0.00 0.00 0.00 99 1009.0
20260904133204 0 46 0.9 5.2 0.00 0.00 0.00 99 1009.0
20260904132704 0 8 1.7 4.3 0.00 0.00 0.00 99 1009.0
20260904132204 0 8 1.7 3.5 0.00 0.00 0.00 99 1009.0
20260904131704 0 262 0.9 3.5 0.00 0.00 0.00 99 1009.0
20260904131204 0 11 1.7 3.5 0.00 0.00 0.00 99 1009.0
20260904130704 0 352 0.9 3.5 0.00 0.00 0.00 99 1009.0
20260904130204 0 4 0.9 3.5 0.00 0.00 0.00 99 1009.0
20260904125704 0 225 0.0 3.5 0.00 0.00 0.00 99 1009.0
20260904125204 0 85 0.0 0.9 0.00 0.00 0.00 99 1009.0
20260904124704 0 95 0.0 0.0 0.00 0.00 0.00 99 1009.0
20260904124204 0 33 0.0 0.0 0.00 0.00 0.00 99 1009.0
20260904123704 0 182 0.0 0.0 0.00 0.00 0.00 99 1009.0
20260904123204 0 14 0.0 0.0 0.00 0.00 0.00 99 1009.0
20260904122704 0 87 0.0 0.0 0.00 0.00 0.00 99 1009.0
20260904122204 0 90 0.0 0.0 0.00 0.00 0.00 99 1008.2
20260904121704 0 1 0.0 0.0 0.00 0.00 0.00 99 1008.2
20260904121204 0 190 0.0 0.0 0.00 0.00 0.00 99 1008.2
20260904120704 0 190 0.0 0.0 0.00 0.00 0.00 99 1009.0
20260904120204 0 10 0.0 0.0 0.00 0.00 0.00 99 1009.0
20260904115704 0 96 0.0 0.0 0.00 0.00 0.00 99 1008.2
20260904115204 0 48 0.0 0.0 0.00 0.00 0.00 99 1008.2
20260904114704 0 183 0.0 0.0 0.00 0.00 0.00 99 1008.1
20260904114204 0 157 0.0 0.0 0.00 0.00 0.00 99 1008.1
20260904113704 0 145 0.0 0.0 0.00 0.00 0.00 99 1008.2
20260904113204 0 91 0.0 0.0 0.00 0.00 0.00 99 1008.1
20260904112704 0 34 0.0 0.0 0.00 0.00 0.00 99 1008.0
20260904112204 0 131 0.0 0.0 0.00 0.00 0.00 99 1008.0
20260904111704 0 151 0.0 0.0 0.00 0.00 0.00 99 1008.0
20260904111204 0 141 0.0 0.0 0.00 0.00 0.00 99 1008.0
20260904110704 0 136 0.0 0.0 0.00 0.00 0.00 99 1008.0
20260904110204 0 156 0.0 0.0 0.00 0.00 0.00 99 1008.0
20260904105704 0 135 0.0 0.0 0.00 0.00 0.00 99 1008.0
20260904105204 0 135 0.0 0.0 0.00 0.00 0.00 99 1008.0
20260904104704 0 133 0.0 0.0 0.00 0.00 0.00 99 1008.0
20260904104204 0 0 0.0 0.0 0.00 0.00 0.00 99 1008.0
20260904103704 0 0 0.0 0.0 0.00 0.00 0.00 99 1008.0
20260904103204 0 34 0.0 0.0 0.00 0.00 0.00 99 1008.0
20260904102704 0 123 0.0 0.0 0.00 0.00 0.00 99 1008.0
20260904102204 0 135 0.0 0.0 0.00 0.00 0.00 99 1008.0
20260904101704 0 135 0.0 0.0 0.00 0.00 0.00 99 1008.0
20260904101204 0 136 0.0 0.0 0.00 0.00 0.00 99 1008.0
20260904100704 0 157 0.0 0.0 0.00 0.00 0.00 99 1008.0
20260904100204 0 136 0.0 0.0 0.00 0.00 0.00 99 1008.0
20260904095704 0 138 0.0 0.0 0.00 0.00 0.00 99 1008.0
20260904095204 0 154 0.0 0.0 0.00 0.00 0.00 99 1008.0
20260904094704 0 125 0.0 0.0 0.00 0.00 0.00 99 1008.0
20260904094204 0 131 0.0 0.0 0.00 0.00 0.00 99 1008.0
20260904093704 0 101 0.0 0.0 0.00 0.00 0.00 99 1008.0
20260904093204 0 137 0.0 0.0 0.00 0.00 0.00 99 1008.0
20260904092704 0 88 0.0 0.0 0.00 0.00 0.00 99 1008.0
20260904092204 0 97 0.0 0.0 0.00 0.00 0.00 99 1008.0
20260904091704 0 97 0.0 0.0 0.00 0.00 0.00 99 1008.0
20260904091204 0 114 0.0 0.0 0.00 0.00 0.00 99 1008.0
20260904090704 0 101 0.0 0.0 0.00 0.00 0.00 99 1008.0
20260904090204 0 131 0.0 0.0 0.00 0.00 0.00 99 1008.0
20260904085704 0 123 0.0 0.0 0.00 0.00 0.00 99 1008.0
20260904085204 0 90 0.0 0.0 0.00 0.00 0.00 99 1008.0
20260904084704 0 90 0.0 0.0 0.00 0.00 0.00 99 1008.0
20260904084204 0 90 0.0 0.0 0.00 0.00 0.00 99 1008.0
20260904083704 0 90 0.0 0.0 0.00 0.00 0.00 99 1008.0
20260904083204 0 90 0.0 0.0 0.00 0.00 0.00 99 1008.0
20260904082704 0 65 0.0 0.0 0.00 0.00 0.00 99 1008.0
20260904082204 0 90 0.0 0.0 0.00 0.00 0.00 99 1008.0
20260904081704 0 90 0.0 0.0 0.00 0.00 0.00 99 1008.0
20260904081204 0 99 0.0 0.0 0.00 0.00 0.00 99 1008.0
20260904080704 0 121 0.0 0.0 0.00 0.00 0.00 99 1008.0
20260904080204 0 59 0.0 0.0 0.00 0.00 0.00 99 1008.0
20260904075704 0 92 0.0 0.0 0.00 0.00 0.00 99 1008.0
20260904075204 0 135 0.0 0.0 0.00 0.00 0.00 99 1008.0
20260904074704 0 135 0.0 0.0 0.00 0.00 0.00 99 1008.0
20260904074204 0 130 0.0 0.0 0.00 0.00 0.00 99 1008.0
20260904073704 0 112 0.0 0.0 0.00 0.00 0.00 99 1008.0
20260904073204 0 112 0.0 0.0 0.00 0.00 0.00 99 1008.0
20260904072704 0 93 0.0 0.0 0.00 0.00 0.00 99 1008.0
20260904072204 0 108 0.0 0.0 0.00 0.00 0.00 99 1008.0
20260904071704 0 140 0.0 0.0 0.00 0.00 0.00 99 1008.0
20260904071204 0 135 0.0 0.0 0.00 0.00 0.00 99 1008.0
20260904070704 0 135 0.0 0.0 0.00 0.00 0.00 99 1008.0
20260904070204 0 135 0.0 0.0 0.00 0.00 0.00 99 1008.0
20260904065704 0 135 0.0 0.0 0.00 0.00 0.00 99 1008.0
20260904065204 0 135 0.0 0.0 0.00 0.00 0.00 99 1008.0
20260904064704 0 135 0.0 0.0 0.00 0.00 0.00 99 1008.0
20260904064204 0 135 0.0 0.0 0.00 0.00 0.00 99 1008.0
20260904063704 0 135 0.0 0.0 0.00 0.00 0.00 99 1008.0
20260904063204 0 135 0.0 0.0 0.00 0.00 0.00 99 1008.0
20260904062704 0 135 0.0 0.0 0.00 0.00 0.00 99 1008.0
20260904062204 0 135 0.0 0.0 0.00 0.00 0.00 99 1008.0
20260904061704 0 135 0.0 0.0 0.00 0.00 0.00 99 1008.0
20260904061204 0 135 0.0 0.0 0.00 0.00 0.00 99 1008.0
20260904060704 0 135 0.0 0.0 0.00 0.00 0.00 99 1008.0
20260904060204 0 135 0.0 0.0 0.00 0.00 0.00 99 1008.0
20260904055704 0 135 0.0 0.0 0.00 0.00 0.00 99 1008.0
20260904055204 0 139 0.0 0.0 0.00 0.00 0.00 99 1008.0
20260904054704 0 156 0.0 0.0 0.00 0.00 0.00 99 1008.0
20260904054204 0 142 0.0 0.0 0.00 0.00 0.00 99 1008.0
20260904053704 0 155 0.0 0.0 0.00 0.00 0.00 99 1008.0
20260904053204 0 109 0.0 0.0 0.00 0.00 0.00 99 1008.0
20260904052704 0 333 0.0 0.0 0.00 0.00 0.00 99 1008.0
20260904052204 0 0 0.0 0.0 0.00 0.00 0.00 99 1008.0
20260904051704 0 0 0.0 0.0 0.00 0.00 0.00 99 1008.0
20260904051204 0 26 0.0 0.0 0.00 0.00 0.00 99 1008.0
20260904050704 0 134 0.0 0.0 0.00 0.00 0.00 99 1008.0
20260904050204 0 109 0.0 0.0 0.00 0.00 0.00 99 1008.0
20260904045704 0 90 0.0 0.0 0.00 0.00 0.00 99 1008.0
20260904045204 0 90 0.0 0.0 0.00 0.00 0.00 99 1008.0
20260904044704 0 90 0.0 0.0 0.00 0.00 0.00 99 1008.0
20260904044204 0 120 0.0 0.0 0.00 0.00 0.00 99 1008.0
20260904043704 0 135 0.0 0.0 0.00 0.00 0.00 99 1008.0
20260904043204 0 136 0.0 0.0 0.00 0.00 0.00 99 1008.1
20260904042704 0 163 0.0 0.0 0.00 0.00 0.00 99 1008.2
20260904042204 0 265 0.0 0.0 0.00 0.00 0.00 99 1008.2
20260904041704 0 270 0.0 0.0 0.00 0.00 0.00 99 1008.0
20260904041204 0 135 0.0 0.0 0.00 0.00 0.00 99 1008.0
20260904040704 0 183 0.0 0.0 0.00 0.00 0.00 99 1008.0
20260904040204 0 204 0.0 0.0 0.00 0.00 0.00 99 1008.0
20260904035703 0 0 0.0 0.0 0.00 0.00 0.00 99 1008.1
20260904035204 0 36 0.0 0.0 0.00 0.00 0.00 99 1008.1
20260904034703 0 168 0.0 0.0 0.00 0.00 0.00 99 1008.1
20260904034203 0 119 0.0 0.0 0.00 0.00 0.00 99 1008.1
20260904033703 0 165 0.0 0.0 0.00 0.00 0.00 99 1009.0
20260904033203 0 163 0.0 0.0 0.00 0.00 0.00 99 1008.2
20260904032703 0 118 0.0 0.0 0.00 0.00 0.00 99 1009.0
20260904032203 0 119 0.0 0.0 0.00 0.00 0.00 99 1008.1
20260904031704 0 144 0.0 0.0 0.00 0.00 0.00 99 1008.1
20260904031203 0 203 0.0 0.0 0.00 0.00 0.00 99 1008.0
20260904030703 0 100 0.0 0.0 0.00 0.00 0.00 99 1009.0
20260904030203 0 299 0.0 0.0 0.00 0.00 0.00 99 1008.2
20260904025703 0 164 0.0 0.0 0.00 0.00 0.00 99 1008.2
20260904025204 0 167 0.0 0.0 0.00 0.00 0.00 99 1008.2
20260904024703 0 359 0.0 0.0 0.00 0.00 0.00 99 1009.0
20260904024203 0 342 0.0 0.0 0.00 0.00 0.00 99 1008.2
20260904023703 0 94 0.0 0.0 0.00 0.00 0.00 99 1009.0
20260904023203 0 137 0.0 0.0 0.00 0.00 0.00 99 1008.2
20260904022703 0 135 0.0 0.0 0.00 0.00 0.00 99 1009.0
20260904022203 0 147 0.0 0.0 0.00 0.00 0.00 99 1009.0
20260904021704 0 292 0.0 0.0 0.00 0.00 0.00 99 1009.0
20260904021203 0 292 0.0 0.0 0.00 0.00 0.00 99 1009.0
20260904020703 0 292 0.0 0.0 0.00 0.00 0.00 99 1009.0
20260904020203 0 292 0.0 0.0 0.00 0.00 0.00 99 1009.0
20260904015703 0 292 0.0 0.0 0.00 0.00 0.00 99 1009.0
20260904015203 0 304 0.0 0.0 0.00 0.00 0.00 99 1009.0
20260904014703 0 349 0.0 0.0 0.00 0.00 0.00 99 1009.0
20260904014203 0 111 0.0 0.0 0.00 0.00 0.00 99 1009.0
20260904013703 0 135 0.0 0.0 0.00 0.00 0.00 99 1009.0
20260904013203 0 135 0.0 0.0 0.00 0.00 0.00 99 1009.0
20260904012703 0 135 0.0 0.0 0.00 0.00 0.00 99 1009.0
20260904012203 69 118 0.0 0.0 0.00 0.00 0.00 99 1009.0
20260904011703 70 57 0.0 0.0 0.00 0.00 0.00 99 1009.0
20260904011203 70 45 0.0 0.0 0.00 0.00 0.00 99 1009.0
20260904010703 70 33 0.0 0.0 0.00 0.00 0.00 99 1009.0
20260904010203 70 135 0.0 0.0 0.00 0.00 0.00 99 1009.0
20260904005703 70 134 0.0 0.0 0.00 0.00 0.00 99 1009.0
20260904005203 70 135 0.0 0.0 0.00 0.00 0.00 99 1009.0
20260904004703 70 135 0.0 0.0 0.00 0.00 0.00 99 1009.0
20260904004203 71 69 0.0 0.0 0.00 0.00 0.00 99 1009.0
20260904003703 71 132 0.0 0.0 0.00 0.00 0.00 99 1009.0
20260904003203 71 130 0.0 0.0 0.00 0.00 0.00 99 1009.0
20260904002703 71 90 0.0 0.0 0.00 0.00 0.00 99 1009.0
20260904002203 71 142 0.0 0.0 0.00 0.00 0.00 99 1009.0
20260904001703 72 122 0.0 0.0 0.00 0.00 0.00 99 1009.0
20260904001203 72 135 0.0 0.0 0.00 0.00 0.00 99 1008.2
20260904000703 72 153 0.0 0.0 0.00 0.00 0.00 99 1009.0
20260904000204 73 157 0.0 0.0 0.00 0.00 0.00 99 1009.0
20260903235703 73 144 0.0 0.0 0.00 0.00 0.00 99 1008.2
20260903235203 73 177 0.0 0.0 0.00 0.00 0.00 99 1008.2
20260903234703 74 151 0.0 0.0 0.00 0.00 0.00 99 1009.0
20260903234203 74 160 0.0 0.0 0.00 0.00 0.00 99 1008.2
20260903233703 74 135 0.0 0.0 0.00 0.00 0.00 99 1009.0
20260903233203 74 135 0.0 0.0 0.00 0.00 0.00 99 1009.0
20260903232703 74 169 0.0 0.0 0.00 0.00 0.00 99 1008.1
20260903232203 74 191 0.0 0.0 0.00 0.00 0.00 99 1008.1
20260903231703 75 180 0.0 0.0 0.00 0.00 0.00 99 1008.1
20260903231203 75 221 0.0 0.0 0.00 0.00 0.00 99 1008.0
20260903230703 76 213 0.0 0.0 0.00 0.00 0.00 99 1008.0
20260903230203 77 169 0.0 0.0 0.00 0.00 0.00 99 1008.1
20260903225703 78 177 0.0 0.0 0.00 0.00 0.00 99 1008.2
20260903225203 78 177 0.0 0.0 0.00 0.00 0.00 99 1008.2
20260903224703 79 181 0.0 0.0 0.00 0.00 0.00 99 1008.1
20260903224203 81 202 0.0 0.0 0.00 0.00 0.00 99 1008.0
20260903223703 82 203 0.0 0.0 0.00 0.00 0.00 99 1008.0
20260903223203 83 225 0.0 0.0 0.00 0.00 0.00 99 1008.0
20260903222703 84 225 0.0 0.0 0.00 0.00 0.00 99 1008.1
20260903222203 86 225 0.0 0.0 0.00 0.00 0.00 99 1008.0
20260903221703 88 225 0.0 0.0 0.00 0.00 0.00 99 1008.0
20260903221203 90 225 0.0 0.0 0.00 0.00 0.00 99 1008.0
20260903220703 90 225 0.0 0.0 0.00 0.00 0.00 99 1008.0